When you browse on this site, cookies collect data to enhance your experience and personalize the content and advertising you see.
Visit our Privacy Policy to learn more. By continuing to use the site, you agree to this use of cookies and data.
  • In Hungary
  • List of Countries
  • For 7 days
  • Water Temperature
  • Satellite Maps
  • Weather Map
  • News
  • Weather Widgets
  • user-avatar
    Login

    Hourly Weather Kuala Lumpur

    Today, 21 November, Wednesday

    Time Temperature Precipitation Wind Pressure Humidity
    00:00 +26°C° 0.2 mm 1 mps 746 mmHg 88%
    01:00 +26°C° 0 mm 1 mps 746 mmHg 88%
    02:00 +26°C° 0.4 mm 1 mps 745 mmHg 88%
    03:00 +25°C° 0.4 mm 1 mps 745 mmHg 88%
    04:00 +25°C° 0.4 mm 1 mps 745 mmHg 88%
    05:00 +26°C° 0.3 mm 1 mps 745 mmHg 86%
    06:00 +26°C° 0.3 mm 1 mps 746 mmHg 85%
    07:00 +27°C° 0 mm 1 mps 746 mmHg 80%
    08:00 +29°C° 0 mm 1 mps 746 mmHg 72%
    09:00 +31°C° 0 mm 1 mps 746 mmHg 64%
    10:00 +32°C° 0 mm 2 mps 746 mmHg 56%
    11:00 +34°C° 0 mm 2 mps 746 mmHg 55%
    12:00 +35°C° 0 mm 2 mps 745 mmHg 53%
    13:00 +34°C° 0 mm 2 mps 745 mmHg 54%
    14:00 +34°C° 0 mm 2 mps 745 mmHg 59%
    15:00 +32°C° 0 mm 2 mps 744 mmHg 63%
    16:00 +31°C° 0 mm 2 mps 744 mmHg 67%
    17:00 +30°C° 0 mm 2 mps 744 mmHg 72%
    18:00 +29°C° 0 mm 2 mps 745 mmHg 77%
    19:00 +27°C° 0 mm 1 mps 745 mmHg 85%
    20:00 +27°C° 0.7 mm 1 mps 745 mmHg 86%
    21:00 +27°C° 0.7 mm 1 mps 745 mmHg 87%
    22:00 +27°C° 0.7 mm 1 mps 746 mmHg 88%
    23:00 +26°C° 1.5 mm 1 mps 746 mmHg 89%

    Tomorrow, 22 November, Thursday

    Time Temperature Precipitation Wind Pressure Humidity
    00:00 +26°C° 1.5 mm 1 mps 746 mmHg 89%
    01:00 +26°C° 1.5 mm 1 mps 746 mmHg 90%
    02:00 +26°C° 1.4 mm 1 mps 746 mmHg 90%
    03:00 +26°C° 1.4 mm 1 mps 745 mmHg 89%
    04:00 +25°C° 1.4 mm 1 mps 745 mmHg 89%
    05:00 +26°C° 0.3 mm 1 mps 745 mmHg 88%
    06:00 +26°C° 0.3 mm 1 mps 746 mmHg 87%
    07:00 +26°C° 0.3 mm 1 mps 746 mmHg 85%
    08:00 +28°C° 0.4 mm 1 mps 746 mmHg 77%
    09:00 +30°C° 0.4 mm 1 mps 747 mmHg 69%
    10:00 +33°C° 0.4 mm 1 mps 747 mmHg 60%
    11:00 +32°C° 1.5 mm 1 mps 746 mmHg 62%
    12:00 +32°C° 1.5 mm 1 mps 746 mmHg 64%
    13:00 +32°C° 1.5 mm 2 mps 745 mmHg 66%
    14:00 +32°C° 1 mm 2 mps 745 mmHg 68%
    15:00 +31°C° 1 mm 1 mps 745 mmHg 70%
    16:00 +31°C° 1 mm 1 mps 744 mmHg 73%
    17:00 +30°C° 1.2 mm 1 mps 744 mmHg 78%
    18:00 +28°C° 1.2 mm 1 mps 745 mmHg 83%
    19:00 +25°C° 1.2 mm 0 mps 745 mmHg 89%
    20:00 +25°C° 0.5 mm 0 mps 746 mmHg 89%
    21:00 +24°C° 0.5 mm 0 mps 746 mmHg 89%
    22:00 +24°C° 0.5 mm 0 mps 747 mmHg 88%
    23:00 +24°C° 0.6 mm 0 mps 747 mmHg 89%

    Day after tomorrow, 23 November, Friday

    Time Temperature Precipitation Wind Pressure Humidity
    00:00 +24°C° 0.6 mm 0 mps 747 mmHg 89%
    01:00 +24°C° 0.6 mm 0 mps 747 mmHg 89%
    02:00 +24°C° 0.7 mm 0 mps 746 mmHg 89%
    03:00 +23°C° 0.7 mm 0 mps 746 mmHg 89%
    04:00 +25°C° 0.7 mm 1 mps 746 mmHg 89%
    05:00 +26°C° 0.2 mm 1 mps 746 mmHg 89%
    06:00 +26°C° 0.2 mm 1 mps 746 mmHg 88%
    07:00 +26°C° 0.2 mm 1 mps 747 mmHg 87%
    08:00 +28°C° 0.6 mm 1 mps 747 mmHg 80%
    09:00 +30°C° 0.6 mm 1 mps 748 mmHg 73%
    10:00 +32°C° 0.6 mm 1 mps 748 mmHg 66%
    11:00 +32°C° 2.3 mm 1 mps 747 mmHg 66%
    12:00 +32°C° 2.3 mm 1 mps 747 mmHg 67%
    13:00 +32°C° 2.3 mm 1 mps 746 mmHg 67%
    14:00 +31°C° 1.3 mm 1 mps 745 mmHg 69%
    15:00 +31°C° 1.3 mm 1 mps 745 mmHg 71%
    16:00 +31°C° 1.3 mm 1 mps 744 mmHg 72%
    17:00 +29°C° 0.6 mm 1 mps 745 mmHg 77%
    18:00 +28°C° 0.6 mm 1 mps 745 mmHg 81%
    19:00 +27°C° 0.6 mm 1 mps 746 mmHg 85%
    20:00 +27°C° 0.2 mm 1 mps 747 mmHg 85%
    21:00 +24°C° 0.2 mm 0 mps 747 mmHg 86%
    22:00 +24°C° 0.2 mm 0 mps 748 mmHg 86%
    23:00 +24°C° 0.2 mm 0 mps 747 mmHg 86%

    24 November, Saturday

    Time Temperature Precipitation Wind Pressure Humidity
    00:00 +24°C° 0.2 mm 0 mps 747 mmHg 86%
    01:00 +24°C° 0.2 mm 0 mps 747 mmHg 86%
    02:00 +24°C° 0 mm 0 mps 746 mmHg 86%
    03:00 +23°C° 0 mm 0 mps 746 mmHg 87%
    04:00 +25°C° 0 mm 1 mps 745 mmHg 87%
    05:00 +25°C° 0.1 mm 1 mps 745 mmHg 86%
    06:00 +26°C° 0.1 mm 1 mps 746 mmHg 85%
    07:00 +26°C° 0.1 mm 1 mps 746 mmHg 84%
    08:00 +28°C° 0 mm 1 mps 747 mmHg 75%
    09:00 +31°C° 0 mm 1 mps 747 mmHg 65%
    10:00 +33°C° 0 mm 1 mps 747 mmHg 56%
    11:00 +33°C° 0 mm 1 mps 747 mmHg 56%
    12:00 +34°C° 0 mm 2 mps 746 mmHg 55%
    13:00 +35°C° 0 mm 2 mps 745 mmHg 55%
    14:00 +34°C° 0.4 mm 2 mps 745 mmHg 60%
    15:00 +32°C° 0.4 mm 2 mps 744 mmHg 65%
    16:00 +31°C° 0.4 mm 2 mps 744 mmHg 69%
    17:00 +30°C° 0.2 mm 2 mps 744 mmHg 75%
    18:00 +28°C° 0.2 mm 2 mps 745 mmHg 81%
    19:00 +27°C° 0.2 mm 1 mps 745 mmHg 86%
    20:00 +27°C° 0.1 mm 1 mps 746 mmHg 87%
    21:00 +27°C° 0.1 mm 1 mps 746 mmHg 88%
    22:00 +26°C° 0.1 mm 1 mps 747 mmHg 89%
    23:00 +26°C° 0 mm 1 mps 746 mmHg 89%

    25 November, Sunday

    Time Temperature Precipitation Wind Pressure Humidity
    00:00 +26°C° 0 mm 1 mps 746 mmHg 89%
    01:00 +26°C° 0 mm 1 mps 745 mmHg 89%
    02:00 +26°C° 0.1 mm 1 mps 745 mmHg 89%
    03:00 +25°C° 0.1 mm 1 mps 745 mmHg 90%
    04:00 +25°C° 0.1 mm 1 mps 744 mmHg 90%
    05:00 +26°C° 0.1 mm 1 mps 745 mmHg 89%
    06:00 +26°C° 0.1 mm 1 mps 745 mmHg 87%
    07:00 +26°C° 0.1 mm 1 mps 746 mmHg 86%
    08:00 +28°C° 0 mm 1 mps 746 mmHg 77%
    09:00 +30°C° 0 mm 1 mps 747 mmHg 68%
    10:00 +32°C° 0 mm 2 mps 747 mmHg 60%
    11:00 +32°C° 0.2 mm 2 mps 746 mmHg 60%
    12:00 +34°C° 0.2 mm 3 mps 745 mmHg 60%
    13:00 +34°C° 0.2 mm 3 mps 745 mmHg 60%
    14:00 +33°C° 0.2 mm 3 mps 744 mmHg 64%
    15:00 +31°C° 0.2 mm 3 mps 744 mmHg 67%
    16:00 +30°C° 0.2 mm 3 mps 743 mmHg 71%
    17:00 +29°C° 0.1 mm 2 mps 744 mmHg 76%
    18:00 +28°C° 0.1 mm 2 mps 744 mmHg 80%
    19:00 +27°C° 0.1 mm 2 mps 745 mmHg 85%
    20:00 +27°C° 0.2 mm 1 mps 745 mmHg 87%
    21:00 +26°C° 0.2 mm 1 mps 746 mmHg 88%
    22:00 +26°C° 0.2 mm 1 mps 747 mmHg 89%
    23:00 +26°C° 0.2 mm 1 mps 746 mmHg 89%

    26 November, Monday

    Time Temperature Precipitation Wind Pressure Humidity
    00:00 +26°C° 0.2 mm 1 mps 746 mmHg 89%
    01:00 +25°C° 0.2 mm 1 mps 746 mmHg 90%
    02:00 +25°C° 0.1 mm 1 mps 745 mmHg 89%
    03:00 +25°C° 0.1 mm 1 mps 745 mmHg 89%
    04:00 +25°C° 0.1 mm 1 mps 745 mmHg 89%
    05:00 +25°C° 0.2 mm 1 mps 745 mmHg 89%
    06:00 +25°C° 0.2 mm 1 mps 745 mmHg 90%
    07:00 +25°C° 0.2 mm 1 mps 746 mmHg 90%
    08:00 +26°C° 0.1 mm 1 mps 746 mmHg 83%
    09:00 +28°C° 0.1 mm 1 mps 747 mmHg 76%
    10:00 +30°C° 0.1 mm 1 mps 747 mmHg 69%
    11:00 +31°C° 0.1 mm 1 mps 746 mmHg 65%
    12:00 +32°C° 0.1 mm 2 mps 745 mmHg 60%
    13:00 +34°C° 0.1 mm 2 mps 745 mmHg 56%
    14:00 +34°C° 0.2 mm 2 mps 744 mmHg 59%
    15:00 +32°C° 0.2 mm 2 mps 744 mmHg 62%
    16:00 +32°C° 0.2 mm 2 mps 743 mmHg 65%
    17:00 +30°C° 0.1 mm 2 mps 744 mmHg 72%
    18:00 +29°C° 0.1 mm 1 mps 745 mmHg 78%
    19:00 +27°C° 0.1 mm 1 mps 745 mmHg 84%
    20:00 +27°C° 0.1 mm 1 mps 746 mmHg 85%
    21:00 +27°C° 0.1 mm 1 mps 746 mmHg 86%
    22:00 +26°C° 0.1 mm 1 mps 746 mmHg 87%
    23:00 +26°C° 0.1 mm 1 mps 746 mmHg 86%
    Show more